When you browse on this site, cookies collect data to enhance your experience and personalize the content and advertising you see.
Visit our Privacy Policy to learn more. By continuing to use the site, you agree to this use of cookies and data.
  • In Latvia
  • List of Countries
  • For 7 days
  • Water Temperature
  • Weather Map
  • Weather Widgets
  • user-avatar
    Login

    Hourly Weather Wylezinek

    Today, 1 June, Monday

    Time Temperature Precipitation Wind Pressure Humidity
    00:00 +11°C° 0 mm 3 mps 750 mmHg 89%
    01:00 +11°C° 0 mm 4 mps 750 mmHg 91%
    02:00 +11°C° 0 mm 3 mps 750 mmHg 90%
    03:00 +10°C° 0 mm 3 mps 750 mmHg 90%
    04:00 +10°C° 0 mm 3 mps 750 mmHg 89%
    05:00 +11°C° 0 mm 4 mps 750 mmHg 85%
    06:00 +12°C° 0 mm 4 mps 750 mmHg 81%
    07:00 +13°C° 0 mm 4 mps 750 mmHg 78%
    08:00 +14°C° 0 mm 5 mps 750 mmHg 71%
    09:00 +15°C° 0 mm 6 mps 750 mmHg 65%
    10:00 +16°C° 0 mm 7 mps 750 mmHg 59%
    11:00 +16°C° 0 mm 7 mps 751 mmHg 57%
    12:00 +16°C° 0 mm 7 mps 751 mmHg 54%
    13:00 +16°C° 0 mm 7 mps 751 mmHg 52%
    14:00 +16°C° 0 mm 7 mps 751 mmHg 53%
    15:00 +16°C° 0 mm 7 mps 750 mmHg 55%
    16:00 +16°C° 0 mm 7 mps 750 mmHg 56%
    17:00 +15°C° 0 mm 6 mps 750 mmHg 62%
    18:00 +13°C° 0 mm 4 mps 750 mmHg 67%
    19:00 +12°C° 0 mm 3 mps 750 mmHg 73%
    20:00 +12°C° 0 mm 3 mps 750 mmHg 76%
    21:00 +11°C° 0 mm 3 mps 750 mmHg 79%
    22:00 +10°C° 0 mm 2 mps 749 mmHg 82%
    23:00 +10°C° 0.9 mm 2 mps 749 mmHg 86%

    Tomorrow, 2 June, Tuesday

    Time Temperature Precipitation Wind Pressure Humidity
    00:00 +10°C° 0.9 mm 2 mps 749 mmHg 90%
    01:00 +10°C° 0.9 mm 2 mps 749 mmHg 94%
    02:00 +9°C° 0.1 mm 3 mps 748 mmHg 95%
    03:00 +9°C° 0.1 mm 3 mps 748 mmHg 95%
    04:00 +8°C° 0.1 mm 3 mps 748 mmHg 96%
    05:00 +8°C° 0 mm 4 mps 748 mmHg 91%
    06:00 +10°C° 0 mm 4 mps 748 mmHg 86%
    07:00 +11°C° 0 mm 4 mps 748 mmHg 82%
    08:00 +12°C° 0 mm 5 mps 748 mmHg 74%
    09:00 +14°C° 0 mm 5 mps 748 mmHg 66%
    10:00 +15°C° 0 mm 6 mps 747 mmHg 58%
    11:00 +15°C° 0 mm 6 mps 747 mmHg 57%
    12:00 +16°C° 0 mm 6 mps 746 mmHg 56%
    13:00 +16°C° 0 mm 6 mps 746 mmHg 56%
    14:00 +16°C° 0 mm 6 mps 746 mmHg 56%
    15:00 +16°C° 0 mm 6 mps 745 mmHg 57%
    16:00 +16°C° 0 mm 5 mps 745 mmHg 57%
    17:00 +15°C° 0 mm 5 mps 745 mmHg 63%
    18:00 +14°C° 0 mm 4 mps 744 mmHg 69%
    19:00 +13°C° 0 mm 3 mps 744 mmHg 76%
    20:00 +12°C° 0 mm 3 mps 744 mmHg 79%
    21:00 +10°C° 0 mm 3 mps 744 mmHg 83%
    22:00 +9°C° 0 mm 3 mps 744 mmHg 86%
    23:00 +9°C° 0 mm 3 mps 744 mmHg 89%

    Day after tomorrow, 3 June, Wednesday

    Time Temperature Precipitation Wind Pressure Humidity
    00:00 +8°C° 0 mm 3 mps 744 mmHg 91%
    01:00 +7°C° 0 mm 3 mps 743 mmHg 94%
    02:00 +7°C° 0 mm 3 mps 743 mmHg 95%
    03:00 +7°C° 0 mm 3 mps 743 mmHg 95%
    04:00 +5°C° 0 mm 3 mps 742 mmHg 96%
    05:00 +8°C° 0 mm 3 mps 742 mmHg 91%
    06:00 +9°C° 0 mm 3 mps 742 mmHg 86%
    07:00 +11°C° 0 mm 4 mps 742 mmHg 81%
    08:00 +12°C° 0.1 mm 4 mps 742 mmHg 78%
    09:00 +12°C° 0.1 mm 4 mps 742 mmHg 75%
    10:00 +13°C° 0.1 mm 5 mps 741 mmHg 72%
    11:00 +13°C° 0.1 mm 4 mps 741 mmHg 72%
    12:00 +13°C° 0.1 mm 4 mps 741 mmHg 72%
    13:00 +13°C° 0.1 mm 3 mps 741 mmHg 72%
    14:00 +14°C° 0.1 mm 4 mps 741 mmHg 70%
    15:00 +14°C° 0.1 mm 4 mps 740 mmHg 68%
    16:00 +15°C° 0.1 mm 4 mps 740 mmHg 67%
    17:00 +14°C° 0.1 mm 4 mps 740 mmHg 72%
    18:00 +13°C° 0.1 mm 3 mps 740 mmHg 78%
    19:00 +13°C° 0.1 mm 2 mps 740 mmHg 83%
    20:00 +12°C° 0 mm 2 mps 740 mmHg 86%
    21:00 +10°C° 0 mm 2 mps 740 mmHg 89%
    22:00 +9°C° 0 mm 2 mps 740 mmHg 91%
    23:00 +9°C° 0 mm 2 mps 740 mmHg 92%

    4 June, Thursday

    Time Temperature Precipitation Wind Pressure Humidity
    00:00 +8°C° 0 mm 2 mps 739 mmHg 93%
    01:00 +8°C° 0 mm 2 mps 739 mmHg 94%
    02:00 +8°C° 0 mm 2 mps 739 mmHg 94%
    03:00 +8°C° 0 mm 2 mps 739 mmHg 94%
    04:00 +8°C° 0 mm 1 mps 739 mmHg 94%
    05:00 +10°C° 0 mm 1 mps 739 mmHg 89%
    06:00 +12°C° 0 mm 1 mps 739 mmHg 84%
    07:00 +14°C° 0 mm 1 mps 739 mmHg 79%
    08:00 +15°C° 0 mm 1 mps 738 mmHg 73%
    09:00 +18°C° 0 mm 1 mps 738 mmHg 66%
    10:00 +19°C° 0 mm 1 mps 738 mmHg 60%
    11:00 +19°C° 0.1 mm 2 mps 738 mmHg 57%
    12:00 +19°C° 0.1 mm 2 mps 737 mmHg 54%
    13:00 +20°C° 0.1 mm 2 mps 737 mmHg 52%
    14:00 +20°C° 0 mm 2 mps 737 mmHg 51%
    15:00 +20°C° 0 mm 2 mps 737 mmHg 50%
    16:00 +21°C° 0 mm 1 mps 736 mmHg 50%
    17:00 +20°C° 0 mm 1 mps 736 mmHg 56%
    18:00 +19°C° 0 mm 1 mps 736 mmHg 61%
    19:00 +16°C° 0 mm 1 mps 736 mmHg 67%
    20:00 +15°C° 0 mm 2 mps 736 mmHg 72%
    21:00 +13°C° 0 mm 3 mps 736 mmHg 76%
    22:00 +12°C° 0 mm 3 mps 736 mmHg 81%
    23:00 +11°C° 0 mm 3 mps 735 mmHg 83%

    5 June, Friday

    Time Temperature Precipitation Wind Pressure Humidity
    00:00 +11°C° 0 mm 3 mps 735 mmHg 84%
    01:00 +11°C° 0 mm 3 mps 735 mmHg 86%
    02:00 +10°C° 0 mm 4 mps 734 mmHg 88%
    03:00 +10°C° 0 mm 4 mps 734 mmHg 90%
    04:00 +10°C° 0 mm 4 mps 733 mmHg 92%
    05:00 +12°C° 0 mm 4 mps 733 mmHg 90%
    06:00 +14°C° 0 mm 5 mps 733 mmHg 87%
    07:00 +15°C° 0 mm 5 mps 733 mmHg 84%
    08:00 +17°C° 0 mm 5 mps 733 mmHg 80%
    09:00 +19°C° 0 mm 4 mps 733 mmHg 75%
    10:00 +21°C° 0 mm 4 mps 733 mmHg 71%
    11:00 +21°C° 0.3 mm 4 mps 733 mmHg 70%
    12:00 +22°C° 0.3 mm 5 mps 734 mmHg 68%
    13:00 +22°C° 0.3 mm 5 mps 734 mmHg 67%
    14:00 +22°C° 0.4 mm 5 mps 734 mmHg 69%
    15:00 +21°C° 0.4 mm 6 mps 734 mmHg 71%
    16:00 +21°C° 0.4 mm 6 mps 735 mmHg 73%
    17:00 +19°C° 0 mm 5 mps 735 mmHg 76%
    18:00 +17°C° 0 mm 5 mps 735 mmHg 80%
    19:00 +15°C° 0 mm 4 mps 736 mmHg 83%
    20:00 +14°C° 0.1 mm 4 mps 736 mmHg 84%
    21:00 +14°C° 0.1 mm 4 mps 737 mmHg 85%
    22:00 +13°C° 0.1 mm 3 mps 738 mmHg 87%
    23:00 +13°C° 1.5 mm 4 mps 738 mmHg 89%

    6 June, Saturday

    Time Temperature Precipitation Wind Pressure Humidity
    00:00 +12°C° 1.5 mm 4 mps 738 mmHg 92%
    01:00 +12°C° 1.5 mm 4 mps 738 mmHg 94%
    02:00 +12°C° 0.7 mm 4 mps 739 mmHg 94%
    03:00 +11°C° 0.7 mm 3 mps 739 mmHg 94%
    04:00 +12°C° 0.7 mm 2 mps 739 mmHg 93%
    05:00 +11°C° 0.7 mm 3 mps 740 mmHg 92%
    06:00 +11°C° 0.7 mm 3 mps 740 mmHg 91%
    07:00 +12°C° 0.7 mm 3 mps 741 mmHg 90%
    08:00 +13°C° 0 mm 3 mps 741 mmHg 81%
    09:00 +16°C° 0 mm 3 mps 741 mmHg 71%
    10:00 +17°C° 0 mm 3 mps 741 mmHg 62%
    11:00 +18°C° 0 mm 3 mps 741 mmHg 59%
    12:00 +19°C° 0 mm 3 mps 741 mmHg 55%
    13:00 +20°C° 0 mm 3 mps 741 mmHg 52%
    14:00 +20°C° 0 mm 3 mps 741 mmHg 54%
    15:00 +20°C° 0 mm 3 mps 741 mmHg 56%
    16:00 +20°C° 0 mm 3 mps 741 mmHg 57%
    17:00 +19°C° 0.1 mm 3 mps 741 mmHg 65%
    18:00 +18°C° 0.1 mm 2 mps 741 mmHg 72%
    19:00 +17°C° 0.1 mm 2 mps 741 mmHg 80%
    20:00 +16°C° 0 mm 2 mps 742 mmHg 82%
    21:00 +15°C° 0 mm 2 mps 742 mmHg 85%
    22:00 +13°C° 0 mm 1 mps 742 mmHg 87%
    23:00 +13°C° 0 mm 2 mps 742 mmHg 88%
    Show more